GFSNW_500_temp_189.txt.gz
Temp
-16 -16 -15 -15 -15 -16 -15 -15 -15 -15 -15 -15 -15 -15 -15 -15 -15 -15 -15 -14 -14 -15 -15 -15 -15 -15 -15 -16 -16 -16 -17 -17 -18 -18 -18 -18 -18 -18 -17 -17 -17 -17 -17 -17
-17 -16 -16 -16 -16 -16 -16 -16 -16 -16 -15 -15 -15 -15 -15 -15 -15 -15 -15 -15 -15 -14 -15 -15 -15 -15 -15 -15 -16 -16 -16 -16 -17 -17 -17 -17 -18 -17 -17 -17 -17 -17 -16 -16
-17 -17 -18 -17 -16 -16 -16 -16 -16 -16 -16 -16 -16 -15 -15 -16 -15 -15 -15 -15 -15 -15 -15 -15 -15 -15 -15 -15 -15 -16 -16 -16 -16 -16 -16 -16 -16 -16 -16 -16 -16 -16 -16 -16
-16 -16 -17 -17 -17 -17 -17 -17 -16 -16 -16 -16 -16 -16 -15 -16 -16 -16 -15 -15 -15 -15 -15 -15 -15 -15 -15 -15 -15 -15 -15 -15 -16 -16 -16 -16 -16 -16 -16 -16 -16 -16 -15 -15
-16 -17 -17 -17 -17 -16 -17 -17 -17 -17 -17 -16 -16 -16 -16 -16 -16 -16 -16 -16 -15 -15 -16 -15 -15 -15 -15 -15 -15 -15 -15 -15 -16 -16 -15 -16 -16 -16 -16 -16 -16 -15 -15 -15
-16 -16 -16 -17 -17 -16 -16 -18 -18 -17 -17 -17 -17 -16 -16 -16 -16 -16 -16 -16 -16 -16 -15 -15 -16 -16 -15 -15 -15 -15 -15 -15 -15 -15 -15 -15 -15 -15 -15 -15 -15 -15 -15 -15
-16 -16 -16 -16 -17 -16 -16 -16 -17 -17 -16 -17 -17 -17 -17 -17 -16 -16 -16 -16 -16 -17 -17 -16 -16 -16 -16 -16 -16 -15 -15 -15 -15 -15 -15 -15 -15 -15 -15 -15 -15 -15 -15 -15
-17 -16 -16 -16 -17 -17 -17 -16 -16 -16 -16 -17 -17 -17 -18 -18 -17 -17 -16 -17 -17 -17 -17 -17 -16 -16 -16 -16 -16 -16 -16 -16 -16 -15 -15 -15 -15 -15 -15 -15 -15 -15 -15 -15
-16 -16 -17 -17 -17 -17 -17 -16 -17 -16 -16 -15 -16 -17 -18 -18 -18 -17 -17 -17 -17 -17 -17 -17 -16 -17 -16 -16 -16 -16 -16 -16 -16 -16 -16 -15 -15 -15 -15 -15 -15 -15 -15 -15
-17 -16 -16 -17 -17 -17 -17 -17 -17 -17 -16 -15 -15 -16 -17 -18 -18 -18 -17 -17 -17 -17 -17 -17 -17 -17 -17 -17 -16 -16 -17 -17 -16 -16 -16 -16 -16 -16 -15 -15 -15 -16 -16 -16
-17 -17 -17 -17 -17 -17 -17 -17 -17 -18 -17 -16 -16 -16 -16 -17 -17 -19 -19 -18 -17 -17 -17 -17 -18 -17 -17 -17 -17 -17 -17 -16 -16 -16 -16 -16 -16 -16 -16 -16 -15 -15 -16 -16
-18 -18 -18 -18 -18 -18 -18 -17 -18 -18 -18 -16 -16 -16 -16 -16 -17 -18 -19 -19 -18 -18 -17 -17 -18 -18 -18 -17 -17 -17 -17 -17 -17 -17 -17 -17 -16 -16 -16 -16 -16 -16 -16 -16
-21 -20 -19 -19 -18 -19 -19 -18 -18 -18 -18 -17 -16 -16 -16 -16 -17 -18 -18 -19 -20 -19 -18 -18 -18 -18 -18 -18 -18 -18 -17 -17 -17 -17 -17 -17 -17 -17 -17 -17 -17 -16 -16 -17
-26 -25 -24 -23 -22 -21 -21 -19 -18 -19 -18 -18 -16 -16 -16 -16 -17 -17 -18 -18 -19 -19 -20 -19 -18 -18 -18 -18 -19 -19 -18 -18 -17 -17 -17 -17 -17 -17 -17 -17 -17 -17 -17 -17
-28 -28 -27 -26 -25 -24 -23 -22 -20 -20 -20 -19 -17 -17 -17 -17 -17 -17 -18 -18 -19 -19 -19 -20 -19 -19 -18 -18 -19 -18 -18 -18 -18 -18 -18 -18 -18 -17 -17 -17 -17 -17 -17 -17
-29 -28 -28 -28 -27 -26 -27 -25 -24 -22 -21 -19 -18 -17 -16 -17 -17 -17 -18 -18 -19 -19 -19 -19 -19 -20 -20 -19 -18 -17 -18 -18 -18 -18 -18 -18 -18 -18 -18 -18 -18 -18 -18 -18
-28 -28 -26 -26 -26 -27 -27 -26 -20 -22 -23 -23 -21 -18 -17 -17 -18 -18 -18 -18 -18 -19 -19 -19 -19 -19 -20 -19 -17 -17 -18 -18 -18 -19 -18 -18 -18 -19 -19 -19 -19 -19 -19 -19
-27 -26 -26 -26 -25 -26 -26 -26 -25 -24 -27 -25 -25 -24 -19 -18 -18 -18 -18 -18 -18 -19 -19 -19 -19 -19 -19 -18 -17 -18 -18 -19 -19 -19 -19 -19 -19 -19 -19 -19 -20 -20 -20 -20
-27 -26 -25 -25 -24 -23 -23 -24 -25 -26 -26 -25 -24 -26 -22 -19 -18 -19 -18 -19 -20 -19 -20 -19 -19 -19 -18 -18 -19 -18 -18 -19 -19 -19 -19 -19 -19 -20 -20 -20 -20 -20 -20 -20
-27 -26 -25 -23 -23 -25 -26 -27 -27 -27 -27 -27 -26 -26 -25 -20 -18 -20 -19 -19 -20 -20 -20 -20 -20 -19 -18 -18 -18 -18 -19 -19 -19 -19 -19 -19 -20 -21 -21 -21 -21 -21 -21 -21
-28 -27 -27 -25 -24 -25 -26 -26 -27 -27 -27 -24 -26 -25 -25 -23 -21 -22 -21 -21 -21 -21 -20 -20 -19 -19 -18 -18 -19 -19 -20 -20 -20 -20 -20 -21 -21 -21 -21 -21 -21 -21 -21 -21
-28 -28 -29 -27 -26 -25 -25 -25 -26 -27 -26 -26 -25 -24 -24 -23 -23 -22 -22 -21 -21 -20 -19 -20 -19 -19 -19 -19 -20 -20 -20 -20 -20 -21 -21 -21 -22 -22 -22 -22 -22 -22 -22 -22
-28 -28 -29 -29 -28 -27 -26 -26 -27 -26 -26 -24 -24 -24 -24 -23 -22 -22 -22 -22 -21 -20 -20 -20 -19 -19 -20 -20 -20 -20 -21 -21 -21 -22 -22 -22 -22 -22 -22 -22 -22 -22 -23 -22
-28 -28 -28 -28 -28 -27 -27 -27 -26 -25 -24 -23 -23 -23 -24 -23 -22 -22 -22 -22 -21 -21 -21 -20 -20 -21 -21 -21 -21 -21 -22 -22 -22 -23 -23 -23 -23 -22 -23 -23 -23 -23 -23 -23
-28 -27 -27 -27 -26 -26 -25 -25 -25 -24 -24 -23 -23 -23 -23 -23 -23 -23 -22 -22 -22 -22 -21 -21 -22 -22 -22 -22 -22 -23 -23 -23 -23 -23 -23 -23 -23 -23 -23 -23 -23 -23 -23 -23
-27 -27 -27 -27 -25 -25 -24 -24 -24 -24 -23 -23 -23 -23 -23 -23 -23 -23 -23 -23 -23 -22 -23 -23 -23 -23 -23 -23 -23 -24 -24 -24 -24 -24 -24 -24 -24 -24 -24 -24 -24 -23 -23 -23
-27 -27 -26 -25 -25 -24 -24 -23 -23 -23 -23 -23 -23 -23 -23 -23 -23 -23 -23 -23 -23 -24 -24 -24 -23 -24 -24 -24 -24 -24 -24 -24 -24 -24 -24 -24 -25 -24 -24 -24 -24 -24 -24 -25

GFSNW_500_temp_192.txt.gz
Temp
-17 -17 -17 -16 -17 -17 -16 -16 -16 -16 -16 -16 -16 -16 -16 -15 -16 -16 -15 -15 -15 -15 -15 -15 -15 -15 -16 -16 -16 -16 -16 -17 -17 -17 -17 -18 -18 -18 -19 -18 -18 -18 -18 -18
-16 -17 -17 -17 -16 -16 -17 -17 -17 -16 -16 -16 -16 -16 -16 -16 -16 -16 -16 -16 -15 -15 -15 -15 -15 -15 -15 -16 -16 -16 -16 -16 -16 -17 -17 -17 -17 -18 -18 -17 -18 -17 -17 -17
-16 -16 -16 -16 -16 -16 -17 -16 -16 -17 -17 -16 -16 -16 -16 -16 -16 -16 -16 -16 -16 -16 -15 -15 -15 -15 -15 -15 -16 -16 -16 -16 -16 -16 -16 -16 -16 -16 -16 -16 -17 -17 -16 -16
-16 -17 -17 -17 -17 -17 -17 -17 -16 -16 -16 -17 -17 -17 -17 -17 -16 -16 -16 -16 -16 -16 -16 -16 -16 -16 -15 -15 -15 -16 -16 -16 -16 -16 -16 -16 -16 -16 -16 -16 -16 -16 -16 -16
-16 -16 -17 -17 -16 -17 -16 -16 -16 -16 -16 -17 -17 -17 -17 -17 -17 -17 -17 -16 -17 -16 -17 -16 -16 -16 -16 -16 -15 -15 -16 -16 -16 -16 -16 -16 -16 -16 -16 -16 -16 -16 -15 -15
-17 -17 -16 -17 -17 -17 -16 -16 -16 -16 -16 -16 -16 -17 -17 -18 -18 -18 -17 -17 -17 -17 -17 -16 -17 -16 -16 -16 -16 -16 -16 -15 -15 -15 -16 -15 -16 -16 -16 -16 -16 -16 -15 -15
-17 -17 -17 -17 -17 -17 -17 -17 -16 -16 -16 -16 -16 -16 -17 -17 -18 -18 -18 -17 -17 -17 -17 -17 -17 -17 -17 -17 -17 -16 -16 -16 -16 -15 -15 -15 -15 -15 -15 -16 -16 -16 -16 -15
-17 -17 -17 -17 -17 -17 -17 -18 -17 -17 -16 -16 -16 -16 -16 -17 -17 -17 -19 -18 -18 -17 -17 -17 -17 -17 -17 -17 -16 -17 -17 -17 -16 -16 -15 -15 -15 -15 -15 -15 -16 -16 -16 -16
-18 -17 -17 -17 -17 -17 -17 -17 -18 -18 -17 -16 -16 -16 -16 -16 -17 -17 -17 -18 -18 -18 -18 -17 -17 -17 -17 -17 -17 -17 -17 -17 -16 -16 -16 -16 -16 -16 -16 -16 -15 -16 -16 -15
-18 -18 -18 -18 -18 -18 -18 -18 -18 -18 -17 -16 -16 -16 -16 -16 -17 -17 -17 -18 -18 -18 -18 -18 -17 -17 -17 -17 -18 -18 -17 -17 -17 -17 -17 -16 -16 -16 -16 -16 -16 -16 -16 -16
-18 -18 -18 -18 -18 -18 -18 -18 -18 -18 -18 -17 -16 -17 -16 -16 -17 -17 -17 -18 -18 -18 -18 -18 -18 -18 -17 -17 -17 -18 -18 -17 -17 -17 -17 -17 -17 -17 -17 -16 -16 -16 -16 -16
-19 -18 -18 -18 -18 -18 -18 -18 -18 -19 -18 -17 -17 -17 -16 -16 -17 -17 -17 -17 -17 -19 -18 -17 -18 -18 -18 -18 -17 -18 -18 -18 -17 -17 -17 -17 -17 -17 -17 -17 -17 -16 -16 -17
-22 -22 -22 -22 -22 -22 -23 -22 -20 -21 -20 -18 -17 -17 -17 -17 -17 -18 -17 -16 -17 -17 -18 -19 -18 -19 -19 -18 -18 -18 -18 -18 -18 -18 -17 -18 -17 -18 -17 -17 -17 -17 -17 -17
-26 -26 -27 -27 -27 -27 -27 -27 -25 -26 -25 -23 -18 -18 -18 -17 -17 -18 -18 -18 -18 -18 -19 -19 -18 -18 -18 -18 -18 -18 -18 -19 -19 -19 -18 -18 -17 -17 -18 -18 -18 -18 -17 -18
-27 -28 -28 -28 -28 -29 -29 -29 -29 -29 -29 -27 -19 -20 -18 -18 -18 -18 -18 -18 -19 -19 -19 -18 -18 -18 -18 -18 -18 -18 -18 -19 -19 -19 -19 -18 -18 -18 -18 -18 -18 -17 -17 -17
-29 -29 -29 -29 -29 -29 -30 -30 -29 -28 -28 -29 -25 -22 -21 -20 -20 -20 -19 -19 -19 -19 -19 -19 -19 -18 -19 -19 -17 -18 -18 -18 -19 -20 -20 -18 -19 -19 -18 -18 -18 -17 -17 -17
-29 -29 -29 -29 -30 -30 -30 -29 -27 -28 -29 -30 -29 -25 -22 -22 -22 -21 -22 -20 -20 -20 -20 -20 -19 -19 -19 -18 -17 -18 -18 -19 -19 -19 -19 -19 -19 -19 -18 -18 -18 -17 -18 -18
-29 -30 -29 -29 -28 -28 -28 -27 -28 -28 -28 -29 -29 -27 -25 -23 -22 -22 -23 -24 -22 -21 -21 -20 -19 -19 -19 -18 -17 -18 -18 -19 -19 -20 -19 -19 -19 -19 -19 -18 -18 -18 -18 -19
-30 -29 -28 -28 -28 -28 -26 -26 -26 -27 -28 -27 -27 -27 -25 -25 -24 -25 -25 -24 -23 -23 -21 -20 -20 -20 -18 -16 -17 -18 -19 -20 -20 -20 -19 -19 -19 -19 -19 -19 -19 -19 -19 -20
-30 -28 -28 -28 -28 -27 -25 -25 -25 -27 -27 -27 -27 -27 -28 -27 -26 -26 -27 -24 -24 -23 -22 -21 -20 -19 -18 -18 -18 -19 -20 -20 -20 -20 -20 -20 -20 -19 -19 -20 -19 -20 -20 -21
-29 -28 -28 -28 -28 -28 -26 -25 -26 -26 -27 -27 -26 -26 -26 -27 -28 -27 -26 -25 -25 -24 -23 -22 -21 -19 -18 -19 -19 -20 -20 -20 -20 -20 -20 -20 -20 -20 -20 -20 -20 -21 -21 -21
-28 -28 -28 -29 -29 -28 -27 -27 -26 -27 -27 -26 -25 -26 -27 -27 -27 -27 -26 -25 -24 -23 -24 -23 -21 -19 -20 -20 -20 -20 -21 -21 -21 -20 -20 -20 -20 -20 -20 -21 -21 -22 -22 -22
-29 -29 -29 -29 -29 -28 -28 -27 -27 -27 -27 -27 -27 -27 -26 -27 -26 -25 -25 -25 -25 -24 -24 -23 -21 -21 -21 -20 -20 -21 -21 -21 -21 -21 -20 -20 -20 -21 -21 -22 -22 -22 -22 -22
-29 -28 -28 -29 -29 -28 -28 -28 -27 -27 -27 -27 -27 -27 -26 -26 -25 -25 -24 -24 -24 -25 -24 -23 -22 -21 -21 -21 -21 -21 -21 -21 -21 -21 -21 -21 -21 -22 -22 -23 -23 -23 -23 -23
-28 -27 -28 -27 -27 -27 -28 -27 -27 -26 -27 -26 -27 -27 -27 -26 -25 -25 -24 -24 -25 -24 -23 -22 -22 -22 -22 -21 -22 -22 -22 -22 -22 -22 -22 -22 -23 -23 -23 -23 -23 -23 -23 -23
-28 -28 -27 -27 -27 -26 -26 -26 -26 -26 -26 -27 -27 -26 -26 -25 -25 -25 -26 -24 -24 -23 -23 -22 -22 -22 -22 -22 -23 -22 -23 -23 -23 -23 -23 -24 -24 -24 -24 -24 -24 -24 -23 -23
-28 -28 -27 -27 -26 -26 -26 -25 -25 -25 -25 -26 -27 -26 -25 -24 -24 -24 -24 -24 -24 -23 -23 -23 -23 -23 -23 -24 -24 -23 -24 -24 -24 -24 -24 -24 -24 -24 -24 -24 -24 -24 -24 -24

GFSNW_500_temp_198.txt.gz
Temp
-16 -16 -15 -16 -15 -16 -16 -16 -16 -16 -16 -16 -16 -16 -16 -16 -17 -17 -17 -16 -16 -16 -16 -16 -16 -16 -16 -16 -17 -17 -17 -16 -16 -16 -17 -17 -17 -18 -18 -18 -18 -18 -18 -19
-16 -16 -16 -16 -16 -16 -16 -16 -16 -17 -17 -16 -16 -16 -16 -16 -17 -17 -17 -17 -17 -17 -17 -16 -16 -16 -16 -17 -16 -17 -17 -17 -17 -16 -17 -17 -17 -17 -17 -17 -17 -18 -17 -18
-17 -17 -16 -16 -16 -16 -16 -17 -16 -16 -16 -16 -16 -16 -16 -16 -16 -17 -17 -17 -18 -17 -17 -17 -17 -17 -16 -16 -17 -16 -17 -17 -17 -17 -17 -16 -17 -17 -17 -17 -17 -17 -17 -17
-17 -17 -17 -17 -17 -17 -17 -17 -16 -16 -16 -17 -17 -17 -16 -16 -17 -17 -17 -17 -17 -18 -18 -18 -17 -17 -17 -17 -17 -17 -16 -17 -17 -17 -17 -17 -16 -17 -16 -17 -17 -16 -16 -17
-17 -17 -17 -17 -17 -17 -17 -17 -17 -17 -17 -17 -17 -17 -17 -17 -17 -17 -17 -17 -18 -17 -17 -18 -18 -17 -17 -17 -17 -17 -16 -16 -17 -17 -17 -17 -16 -17 -16 -16 -16 -16 -16 -16
-17 -17 -17 -17 -17 -17 -17 -17 -17 -17 -17 -17 -17 -17 -17 -17 -17 -17 -17 -17 -17 -17 -17 -18 -18 -18 -18 -17 -17 -17 -17 -17 -17 -16 -17 -16 -16 -16 -16 -16 -16 -16 -16 -16
-17 -17 -17 -17 -17 -17 -18 -18 -18 -17 -17 -17 -17 -17 -17 -17 -18 -17 -17 -18 -18 -17 -17 -18 -18 -18 -18 -18 -18 -17 -17 -17 -17 -16 -17 -16 -17 -17 -16 -17 -17 -17 -16 -16
-18 -18 -18 -18 -18 -18 -18 -18 -18 -18 -18 -18 -18 -17 -17 -18 -17 -17 -18 -18 -18 -18 -18 -18 -18 -17 -17 -17 -18 -18 -17 -18 -18 -17 -17 -17 -16 -17 -17 -17 -17 -17 -17 -17
-18 -18 -19 -19 -19 -19 -19 -19 -19 -18 -18 -18 -18 -18 -18 -18 -18 -18 -18 -18 -18 -18 -18 -18 -18 -17 -17 -17 -17 -18 -18 -18 -18 -18 -17 -17 -16 -18 -17 -17 -17 -17 -17 -17
-19 -19 -19 -19 -19 -19 -19 -19 -20 -19 -19 -19 -19 -19 -19 -19 -18 -18 -18 -18 -19 -19 -18 -18 -18 -18 -18 -18 -17 -18 -17 -18 -18 -18 -18 -17 -17 -17 -18 -17 -17 -17 -17 -17
-19 -19 -19 -19 -19 -20 -20 -20 -20 -20 -20 -20 -20 -20 -20 -20 -20 -19 -19 -19 -19 -19 -19 -19 -18 -18 -18 -18 -18 -18 -18 -18 -18 -19 -18 -17 -17 -18 -18 -18 -18 -18 -18 -17
-19 -20 -20 -20 -20 -20 -21 -20 -21 -23 -22 -21 -21 -20 -21 -21 -21 -21 -21 -20 -20 -22 -22 -20 -19 -19 -18 -18 -18 -19 -18 -18 -18 -19 -18 -18 -18 -18 -18 -19 -19 -18 -18 -18
-20 -20 -20 -21 -21 -21 -22 -23 -24 -26 -26 -25 -24 -24 -25 -25 -23 -25 -23 -21 -22 -21 -24 -24 -23 -21 -19 -19 -18 -19 -18 -18 -18 -18 -17 -18 -19 -19 -19 -19 -20 -20 -19 -18
-21 -21 -21 -22 -23 -24 -26 -26 -28 -29 -29 -28 -26 -27 -27 -27 -27 -27 -26 -24 -25 -23 -25 -26 -23 -22 -19 -19 -19 -19 -19 -19 -18 -18 -18 -18 -18 -19 -20 -20 -19 -19 -19 -19
-22 -23 -24 -25 -27 -28 -29 -29 -29 -29 -30 -30 -28 -28 -27 -28 -28 -28 -28 -28 -27 -26 -27 -26 -25 -24 -21 -20 -20 -19 -19 -19 -19 -18 -19 -19 -20 -20 -20 -20 -20 -20 -20 -19
-24 -26 -27 -29 -30 -30 -29 -28 -28 -30 -31 -32 -31 -28 -27 -28 -29 -29 -29 -29 -29 -29 -28 -27 -26 -24 -25 -24 -22 -19 -19 -20 -20 -19 -20 -20 -20 -20 -20 -20 -21 -20 -20 -19
-28 -29 -30 -30 -30 -30 -30 -29 -29 -31 -33 -33 -30 -27 -26 -28 -29 -29 -30 -30 -30 -30 -30 -28 -26 -25 -26 -25 -24 -21 -21 -21 -21 -20 -21 -20 -20 -20 -21 -20 -21 -20 -20 -20
-31 -31 -30 -30 -30 -30 -29 -30 -30 -30 -31 -31 -29 -27 -28 -28 -28 -28 -29 -29 -30 -30 -29 -29 -29 -26 -26 -25 -24 -20 -18 -21 -21 -21 -21 -21 -21 -21 -21 -21 -20 -20 -20 -20
-31 -31 -30 -30 -30 -30 -29 -30 -30 -31 -31 -30 -27 -27 -28 -28 -28 -28 -28 -28 -29 -29 -29 -29 -29 -28 -27 -26 -24 -22 -20 -22 -20 -21 -22 -21 -21 -21 -21 -21 -21 -21 -21 -20
-31 -31 -30 -30 -32 -31 -30 -30 -30 -30 -29 -29 -28 -28 -28 -28 -28 -29 -29 -29 -29 -29 -28 -28 -28 -28 -27 -26 -25 -24 -23 -22 -22 -22 -23 -22 -22 -21 -21 -22 -22 -21 -21 -20
-31 -30 -31 -31 -31 -31 -31 -29 -29 -29 -28 -29 -29 -29 -28 -28 -28 -28 -28 -29 -29 -29 -28 -29 -28 -28 -27 -27 -25 -25 -24 -23 -23 -23 -23 -23 -23 -22 -21 -21 -21 -21 -21 -21
-32 -32 -31 -31 -31 -31 -30 -29 -30 -29 -29 -29 -29 -28 -28 -28 -29 -29 -29 -29 -29 -29 -28 -29 -28 -27 -28 -27 -25 -24 -25 -24 -24 -23 -23 -24 -23 -22 -21 -21 -21 -21 -21 -21
-34 -33 -32 -31 -31 -30 -30 -30 -30 -30 -29 -29 -29 -29 -29 -29 -28 -28 -29 -29 -29 -29 -28 -28 -27 -27 -27 -27 -26 -26 -26 -25 -24 -24 -24 -24 -23 -23 -22 -22 -21 -21 -21 -22
-34 -33 -32 -32 -31 -30 -30 -30 -30 -30 -29 -29 -29 -29 -29 -29 -29 -28 -28 -28 -28 -28 -28 -27 -27 -27 -27 -26 -26 -25 -25 -24 -24 -24 -24 -23 -23 -23 -22 -22 -22 -21 -22 -22
-34 -33 -32 -31 -30 -30 -29 -29 -29 -28 -28 -28 -28 -29 -29 -29 -29 -28 -28 -28 -28 -28 -28 -28 -27 -26 -25 -25 -25 -25 -25 -25 -24 -24 -24 -24 -23 -23 -23 -22 -22 -23 -23 -23
-33 -33 -32 -30 -30 -29 -29 -29 -28 -28 -28 -28 -28 -29 -29 -29 -29 -28 -27 -27 -27 -27 -27 -27 -26 -25 -25 -24 -25 -24 -24 -24 -24 -24 -24 -23 -23 -23 -23 -23 -23 -24 -23 -23
-33 -32 -31 -30 -29 -29 -29 -28 -28 -28 -28 -28 -29 -29 -29 -29 -28 -28 -28 -28 -27 -27 -26 -25 -25 -25 -25 -24 -24 -24 -24 -24 -23 -23 -24 -24 -24 -24 -24 -24 -24 -24 -24 -24

GFSNW_500_temp_201.txt.gz
Temp
-16 -16 -16 -16 -16 -16 -16 -15 -15 -16 -16 -16 -16 -16 -16 -16 -16 -17 -17 -17 -17 -17 -17 -17 -17 -17 -17 -17 -17 -17 -17 -16 -17 -17 -17 -17 -17 -17 -18 -17 -18 -18 -17 -18
-16 -16 -16 -16 -16 -16 -16 -16 -16 -16 -16 -16 -16 -16 -16 -16 -16 -17 -17 -17 -17 -17 -17 -17 -18 -17 -17 -17 -17 -17 -17 -17 -17 -17 -17 -17 -17 -17 -17 -17 -17 -18 -17 -17
-16 -16 -16 -16 -16 -16 -16 -16 -16 -16 -16 -16 -16 -16 -16 -16 -17 -16 -17 -17 -17 -17 -17 -18 -17 -17 -18 -18 -17 -17 -17 -17 -17 -17 -17 -17 -18 -17 -17 -17 -17 -17 -17 -17
-17 -17 -17 -17 -17 -16 -16 -16 -16 -16 -16 -17 -17 -16 -16 -17 -17 -17 -17 -17 -17 -17 -17 -17 -17 -18 -18 -18 -18 -18 -17 -17 -17 -17 -17 -17 -17 -17 -18 -16 -17 -16 -17 -16
-18 -17 -17 -17 -17 -17 -16 -17 -17 -17 -17 -17 -17 -17 -17 -17 -17 -17 -17 -17 -17 -18 -18 -18 -17 -18 -17 -18 -18 -18 -18 -17 -17 -17 -17 -17 -17 -17 -17 -17 -17 -17 -16 -17
-18 -18 -18 -17 -17 -17 -17 -17 -17 -17 -17 -17 -17 -17 -17 -17 -17 -17 -18 -17 -17 -18 -18 -18 -18 -18 -18 -18 -18 -18 -18 -18 -18 -17 -17 -17 -16 -17 -17 -17 -17 -17 -17 -17
-18 -18 -18 -17 -17 -17 -17 -17 -17 -17 -17 -18 -18 -18 -18 -18 -18 -18 -18 -18 -18 -18 -18 -18 -18 -18 -18 -18 -18 -18 -18 -19 -19 -18 -18 -16 -16 -17 -18 -17 -17 -17 -17 -17
-18 -18 -18 -18 -18 -18 -18 -18 -18 -18 -17 -18 -18 -18 -18 -18 -18 -19 -18 -19 -19 -19 -19 -19 -18 -18 -18 -18 -18 -18 -19 -18 -19 -19 -18 -17 -16 -17 -18 -18 -17 -17 -17 -17
-19 -18 -18 -18 -18 -18 -18 -19 -18 -19 -19 -19 -19 -19 -19 -19 -19 -19 -19 -19 -19 -19 -19 -20 -19 -18 -18 -18 -18 -18 -19 -19 -19 -18 -18 -18 -18 -18 -18 -19 -17 -18 -18 -18
-19 -19 -19 -19 -19 -20 -19 -20 -20 -20 -20 -19 -20 -20 -20 -20 -20 -20 -20 -20 -20 -21 -20 -20 -20 -19 -19 -19 -19 -19 -19 -19 -19 -19 -19 -17 -18 -19 -19 -19 -18 -19 -19 -18
-20 -20 -20 -20 -20 -20 -20 -20 -20 -20 -20 -20 -20 -20 -20 -21 -21 -21 -21 -21 -21 -21 -22 -22 -21 -21 -20 -20 -19 -19 -19 -20 -18 -19 -19 -17 -19 -19 -19 -19 -19 -19 -19 -19
-21 -21 -21 -21 -21 -21 -21 -21 -21 -21 -21 -21 -21 -21 -21 -22 -22 -23 -24 -24 -24 -23 -25 -25 -26 -25 -22 -20 -19 -19 -19 -19 -20 -19 -18 -19 -19 -20 -20 -20 -20 -20 -20 -20
-21 -21 -22 -22 -21 -21 -21 -21 -21 -22 -22 -22 -21 -22 -23 -25 -27 -28 -28 -27 -28 -28 -28 -27 -27 -26 -25 -22 -20 -19 -20 -20 -21 -21 -18 -18 -19 -19 -20 -20 -20 -21 -20 -20
-22 -22 -22 -22 -22 -22 -22 -22 -23 -24 -24 -25 -23 -25 -27 -27 -29 -30 -30 -29 -29 -29 -30 -29 -28 -27 -26 -25 -23 -21 -21 -21 -20 -19 -19 -19 -19 -20 -20 -21 -20 -20 -21 -21
-23 -23 -23 -23 -23 -23 -23 -23 -24 -27 -30 -29 -27 -26 -27 -29 -29 -29 -29 -29 -29 -30 -30 -29 -28 -28 -27 -25 -25 -23 -23 -22 -22 -20 -20 -20 -20 -21 -21 -21 -21 -21 -21 -21
-24 -24 -24 -24 -24 -25 -27 -25 -27 -30 -31 -31 -28 -26 -26 -29 -30 -30 -30 -30 -30 -30 -30 -30 -29 -28 -29 -28 -26 -25 -24 -24 -24 -22 -23 -20 -20 -21 -21 -21 -21 -21 -21 -21
-25 -25 -25 -26 -27 -29 -30 -29 -30 -30 -30 -30 -28 -26 -27 -29 -30 -30 -31 -31 -30 -31 -31 -30 -29 -29 -30 -29 -27 -24 -24 -25 -24 -24 -23 -22 -21 -21 -22 -22 -22 -22 -22 -21
-26 -27 -27 -28 -30 -31 -30 -30 -30 -31 -31 -30 -28 -27 -28 -30 -29 -29 -30 -30 -30 -30 -29 -29 -29 -29 -30 -30 -27 -25 -25 -25 -25 -25 -24 -23 -24 -22 -22 -22 -22 -22 -22 -22
-29 -29 -30 -30 -31 -31 -30 -29 -30 -31 -30 -29 -29 -29 -28 -28 -28 -29 -29 -29 -29 -29 -29 -29 -30 -29 -28 -27 -27 -26 -26 -26 -25 -25 -25 -23 -24 -23 -23 -23 -22 -22 -22 -22
-32 -32 -31 -31 -31 -31 -30 -30 -30 -30 -31 -30 -29 -30 -29 -29 -29 -29 -29 -29 -29 -28 -27 -28 -27 -27 -27 -27 -28 -28 -28 -27 -25 -26 -25 -25 -25 -23 -23 -23 -23 -22 -22 -22
-32 -32 -31 -31 -32 -31 -30 -30 -30 -30 -30 -30 -30 -30 -29 -29 -29 -29 -30 -29 -29 -28 -28 -28 -27 -26 -27 -29 -28 -28 -29 -29 -28 -26 -26 -26 -25 -24 -24 -24 -23 -23 -23 -22
-32 -32 -32 -32 -32 -33 -32 -31 -30 -31 -30 -30 -30 -30 -30 -30 -29 -29 -29 -28 -29 -28 -29 -28 -26 -27 -28 -29 -29 -28 -29 -29 -28 -27 -26 -25 -25 -25 -25 -23 -24 -23 -23 -22
-34 -34 -34 -33 -33 -33 -32 -31 -31 -30 -30 -30 -30 -30 -30 -30 -30 -29 -29 -29 -29 -28 -28 -28 -28 -28 -28 -28 -28 -28 -28 -28 -28 -27 -26 -26 -26 -25 -25 -24 -23 -23 -23 -22
-35 -35 -34 -34 -33 -32 -32 -31 -31 -30 -30 -30 -30 -29 -29 -29 -30 -30 -29 -29 -29 -28 -28 -29 -29 -29 -28 -28 -27 -27 -27 -28 -27 -27 -26 -26 -26 -25 -24 -24 -24 -23 -23 -23
-36 -36 -34 -33 -33 -32 -31 -30 -30 -30 -30 -29 -29 -29 -28 -29 -29 -30 -29 -29 -29 -28 -28 -28 -28 -28 -27 -27 -26 -27 -27 -26 -26 -27 -26 -26 -25 -24 -25 -24 -24 -24 -23 -24
-36 -35 -34 -33 -32 -32 -31 -30 -30 -29 -29 -29 -30 -29 -29 -29 -29 -29 -29 -29 -28 -28 -28 -28 -27 -27 -27 -26 -26 -25 -25 -25 -25 -25 -25 -24 -24 -24 -24 -24 -24 -24 -24 -24
-35 -34 -33 -32 -32 -31 -30 -30 -30 -30 -30 -30 -30 -29 -29 -29 -29 -29 -29 -28 -28 -28 -28 -27 -27 -26 -26 -25 -25 -25 -25 -25 -25 -25 -25 -25 -24 -23 -23 -24 -24 -24 -24 -24